FW7236 Weather Reports


Display with metric or nautical units.
time (UTC)temp
F
wind
direction
speed
MPH
gust
MPH
rain 1hr
in
rain 24hr
in
rain mn
in
humidity
%
barometer
mb
20260508023046 62 0 0.0 0.0 0.00 0.00 0.00 85 1020.9
20260508021544 63 0 0.0 1.0 0.00 0.00 0.00 83 1020.7
20260508020040 64 61 0.0 4.0 0.00 0.00 0.00 82 1020.5
20260508014539 65 81 1.0 4.0 0.00 0.00 0.00 80 1020.6
20260508013038 65 19 1.0 5.0 0.00 0.00 0.00 80 1020.6
20260508011540 66 29 2.0 5.0 0.00 0.00 0.00 78 1020.6
20260508010044 67 43 2.0 7.0 0.00 0.00 0.00 77 1020.5
20260508004541 68 19 1.0 6.0 0.00 0.00 0.00 76 1020.6
20260508003045 68 105 3.0 8.0 0.00 0.00 0.00 76 1020.6
20260508001547 68 0 2.0 10.0 0.00 0.00 0.00 76 1020.7
20260508000045 68 38 3.0 10.0 0.00 0.00 0.00 76 1020.5
20260507234543 69 34 3.0 10.0 0.00 0.00 0.00 74 1020.6
20260507233040 69 63 4.0 10.0 0.00 0.00 0.00 74 1020.7
20260507231539 70 40 3.0 9.0 0.00 0.00 0.00 74 1020.7
20260507230039 70 13 4.0 9.0 0.00 0.00 0.00 73 1020.7
20260507224538 69 29 3.0 9.0 0.00 0.00 0.00 74 1020.8
20260507223043 70 55 4.0 9.0 0.00 0.00 0.00 74 1020.8
20260507221539 70 30 4.0 10.0 0.00 0.00 0.00 73 1020.8
20260507220037 70 53 3.0 10.0 0.00 0.00 0.00 73 1020.9
20260507214545 69 40 4.0 11.0 0.00 0.00 0.00 74 1021.3
20260507213040 69 32 4.0 10.0 0.00 0.00 0.00 73 1021.5
20260507211540 70 78 3.0 9.0 0.00 0.00 0.00 73 1021.4
20260507210039 70 113 4.0 13.0 0.00 0.00 0.00 73 1021.5
20260507204538 71 61 3.0 12.0 0.00 0.00 0.00 71 1021.8
20260507203036 71 51 3.0 9.0 0.00 0.00 0.00 71 1021.6
20260507201540 71 24 3.0 11.0 0.00 0.00 0.00 72 1021.7
20260507200050 71 63 3.0 9.0 0.00 0.00 0.00 71 1021.9
20260507194547 71 37 4.0 10.0 0.00 0.00 0.00 72 1022.0
20260507193040 71 21 4.0 9.0 0.00 0.00 0.00 71 1022.1
20260507191608 70 55 3.0 11.0 0.00 0.00 0.00 72 1022.4
20260507190045 70 57 2.0 9.0 0.00 0.00 0.00 72 1022.5
20260507184555 71 51 3.0 10.0 0.00 0.00 0.00 71 1022.8
20260507183045 70 40 3.0 10.0 0.00 0.00 0.00 72 1022.7
20260507181539 71 59 3.0 8.0 0.00 0.00 0.00 72 1022.7
20260507180041 69 109 2.0 6.0 0.00 0.00 0.00 73 1022.7
20260507174538 69 0 3.0 6.0 0.00 0.00 0.00 74 1022.9
20260507173043 69 46 3.0 8.0 0.00 0.00 0.00 73 1023.1
20260507171548 69 0 2.0 8.0 0.00 0.00 0.00 74 1023.0
20260507170039 68 5 2.0 8.0 0.00 0.00 0.00 73 1022.9
20260507164554 68 17 2.0 7.0 0.00 0.00 0.00 72 1023.0
20260507163039 67 267 0.0 6.0 0.00 0.00 0.00 73 1023.0
20260507161549 66 342 1.0 5.0 0.00 0.00 0.00 75 1022.9
20260507160040 65 41 1.0 4.0 0.00 0.00 0.00 77 1023.1
20260507154537 64 89 1.0 4.0 0.00 0.00 0.00 79 1023.1
20260507153039 63 0 1.0 3.0 0.00 0.00 0.00 80 1023.2
20260507151546 61 0 1.0 3.0 0.00 0.00 0.00 83 1023.2
20260507150043 60 15 1.0 3.0 0.00 0.00 0.00 84 1023.0
20260507144540 58 0 0.0 0.0 0.00 0.00 0.00 88 1023.0
20260507143056 56 0 0.0 0.0 0.00 0.00 0.00 90 1022.8
20260507141604 54 0 0.0 0.0 0.00 0.00 0.00 93 1022.6
20260507140042 52 0 0.0 0.0 0.00 0.00 0.00 93 1022.5
20260507134540 52 0 0.0 0.0 0.00 0.00 0.00 93 1022.2
20260507133041 51 0 0.0 0.0 0.00 0.00 0.00 93 1022.0
20260507131546 51 0 0.0 0.0 0.00 0.00 0.00 93 1021.9
20260507130042 51 0 0.0 0.0 0.00 0.00 0.00 93 1021.9
20260507124542 51 0 0.0 0.0 0.00 0.00 0.00 92 1021.9
20260507123043 51 0 0.0 0.0 0.00 0.00 0.00 92 1021.8
20260507121543 51 0 0.0 0.0 0.00 0.00 0.00 92 1021.7
20260507120036 52 0 0.0 0.0 0.00 0.00 0.00 92 1021.9
20260507114541 52 0 0.0 0.0 0.00 0.00 0.00 92 1021.9
20260507113040 52 0 0.0 0.0 0.00 0.00 0.00 92 1022.0
20260507111540 52 0 0.0 0.0 0.00 0.00 0.00 92 1022.2
20260507110037 52 0 0.0 0.0 0.00 0.00 0.00 91 1022.3
20260507104546 53 0 0.0 1.0 0.00 0.00 0.00 91 1022.3
20260507103043 53 0 0.0 1.0 0.00 0.00 0.00 91 1022.3
20260507101542 53 0 0.0 0.0 0.00 0.00 0.00 90 1022.3
20260507100052 53 0 0.0 0.0 0.00 0.00 0.00 90 1022.3
20260507094540 54 0 0.0 0.0 0.00 0.00 0.00 90 1022.4
20260507093037 54 0 0.0 2.0 0.00 0.00 0.00 90 1022.5
20260507091543 54 0 0.0 0.0 0.00 0.00 0.00 90 1022.7
20260507090049 54 0 0.0 2.0 0.00 0.00 0.00 90 1023.0
20260507084549 54 0 0.0 0.0 0.00 0.00 0.00 90 1023.1
20260507083039 54 0 0.0 0.0 0.00 0.00 0.00 90 1023.2
20260507081545 54 0 0.0 0.0 0.00 0.00 0.00 89 1023.5
20260507080041 55 0 0.0 0.0 0.00 0.00 0.00 88 1023.5
20260507074541 55 0 0.0 0.0 0.00 0.00 0.00 88 1023.3
20260507073040 55 0 0.0 0.0 0.00 0.00 0.00 87 1023.2
20260507071539 56 0 0.0 0.0 0.00 0.00 0.00 88 1023.4
20260507070043 56 0 0.0 0.0 0.00 0.00 0.00 87 1023.5
20260507064613 56 0 0.0 0.0 0.00 0.00 0.00 86 1023.5
20260507063037 56 0 0.0 0.0 0.00 0.00 0.00 86 1023.5
20260507061540 57 0 0.0 0.0 0.00 0.00 0.00 85 1023.5
20260507060108 57 0 0.0 0.0 0.00 0.00 0.00 85 1023.5
20260507054551 57 0 0.0 0.0 0.00 0.00 0.00 84 1023.4
20260507053044 58 0 0.0 0.0 0.00 0.00 0.00 83 1023.2
20260507051553 58 0 0.0 0.0 0.00 0.00 0.00 82 1023.2
20260507050046 58 0 0.0 0.0 0.00 0.00 0.00 82 1023.3
20260507044539 59 0 0.0 0.0 0.00 0.00 0.00 81 1023.4
20260507043041 59 0 0.0 0.0 0.00 0.00 0.00 80 1023.4
20260507041537 60 0 0.0 0.0 0.00 0.00 0.00 79 1023.4
20260507040042 60 0 0.0 2.0 0.00 0.00 0.00 78 1023.2
20260507034538 61 0 0.0 2.0 0.00 0.00 0.00 78 1023.0
20260507033038 61 0 0.0 0.0 0.00 0.00 0.00 77 1023.0
20260507031538 62 0 0.0 2.0 0.00 0.00 0.00 76 1022.9
20260507030040 62 0 0.0 2.0 0.00 0.00 0.00 76 1022.9
20260507024544 63 0 0.0 2.0 0.00 0.00 0.00 75 1022.6